When you browse on this site, cookies collect data to enhance your experience and personalize the content and advertising you see.
Visit our Privacy Policy to learn more. By continuing to use the site, you agree to this use of cookies and data.
  • In Hungary
  • List of Countries
  • For 7 days
  • Water Temperature
  • Satellite Maps
  • Weather Map
  • News
  • Weather Widgets
  • user-avatar
    Login

    Hourly Weather Vrilissia

    Today, 10 December, Monday

    Time Temperature Precipitation Wind Pressure Humidity
    00:00 +12°C° 0 mm 4 mps 736 mmHg 70%
    01:00 +11°C° 0 mm 4 mps 736 mmHg 70%
    02:00 +11°C° 0 mm 4 mps 736 mmHg 71%
    03:00 +11°C° 0 mm 4 mps 735 mmHg 71%
    04:00 +11°C° 0 mm 4 mps 735 mmHg 72%
    05:00 +11°C° 0 mm 4 mps 734 mmHg 72%
    06:00 +12°C° 0 mm 5 mps 733 mmHg 72%
    07:00 +11°C° 0 mm 6 mps 733 mmHg 72%
    08:00 +12°C° 0 mm 7 mps 732 mmHg 72%
    09:00 +12°C° 0.4 mm 7 mps 732 mmHg 72%
    10:00 +12°C° 0.4 mm 7 mps 732 mmHg 71%
    11:00 +13°C° 0.4 mm 8 mps 732 mmHg 71%
    12:00 +14°C° 0.1 mm 7 mps 731 mmHg 66%
    13:00 +14°C° 0.1 mm 7 mps 731 mmHg 61%
    14:00 +15°C° 0.1 mm 6 mps 731 mmHg 56%
    15:00 +14°C° 0.3 mm 6 mps 732 mmHg 59%
    16:00 +12°C° 0.3 mm 7 mps 732 mmHg 62%
    17:00 +12°C° 0.3 mm 7 mps 733 mmHg 64%
    18:00 +11°C° 0.2 mm 7 mps 733 mmHg 66%
    19:00 +10°C° 0.2 mm 7 mps 734 mmHg 68%
    20:00 +10°C° 0.2 mm 7 mps 735 mmHg 69%
    21:00 +9°C° 0 mm 6 mps 735 mmHg 66%
    22:00 +9°C° 0 mm 6 mps 736 mmHg 63%
    23:00 +9°C° 0 mm 5 mps 736 mmHg 60%

    Tomorrow, 11 December, Tuesday

    Time Temperature Precipitation Wind Pressure Humidity
    00:00 +9°C° 0 mm 5 mps 736 mmHg 61%
    01:00 +8°C° 0 mm 4 mps 737 mmHg 61%
    02:00 +9°C° 0 mm 3 mps 737 mmHg 62%
    03:00 +9°C° 0 mm 3 mps 737 mmHg 62%
    04:00 +9°C° 0 mm 3 mps 737 mmHg 63%
    05:00 +8°C° 0 mm 3 mps 737 mmHg 64%
    06:00 +8°C° 0 mm 3 mps 737 mmHg 63%
    07:00 +8°C° 0 mm 3 mps 738 mmHg 63%
    08:00 +8°C° 0 mm 3 mps 738 mmHg 63%
    09:00 +9°C° 0 mm 3 mps 738 mmHg 60%
    10:00 +10°C° 0 mm 3 mps 739 mmHg 58%
    11:00 +10°C° 0 mm 3 mps 739 mmHg 55%
    12:00 +10°C° 0.7 mm 3 mps 739 mmHg 60%
    13:00 +9°C° 0.7 mm 3 mps 739 mmHg 64%
    14:00 +9°C° 0.7 mm 3 mps 738 mmHg 68%
    15:00 +8°C° 1 mm 3 mps 738 mmHg 70%
    16:00 +8°C° 1 mm 3 mps 739 mmHg 72%
    17:00 +8°C° 1 mm 3 mps 739 mmHg 73%
    18:00 +8°C° 0.1 mm 3 mps 739 mmHg 72%
    19:00 +8°C° 0.1 mm 3 mps 740 mmHg 71%
    20:00 +8°C° 0.1 mm 3 mps 740 mmHg 70%
    21:00 +7°C° 0 mm 2 mps 740 mmHg 71%
    22:00 +7°C° 0 mm 2 mps 740 mmHg 71%
    23:00 +7°C° 0 mm 2 mps 741 mmHg 71%

    Day after tomorrow, 12 December, Wednesday

    Time Temperature Precipitation Wind Pressure Humidity
    00:00 +7°C° 0 mm 2 mps 741 mmHg 72%
    01:00 +7°C° 0 mm 2 mps 741 mmHg 73%
    02:00 +7°C° 0 mm 2 mps 741 mmHg 73%
    03:00 +7°C° 0.1 mm 2 mps 741 mmHg 73%
    04:00 +7°C° 0.1 mm 2 mps 741 mmHg 73%
    05:00 +6°C° 0.1 mm 2 mps 741 mmHg 73%
    06:00 +6°C° 0 mm 2 mps 741 mmHg 72%
    07:00 +6°C° 0 mm 2 mps 742 mmHg 72%
    08:00 +6°C° 0 mm 2 mps 742 mmHg 71%
    09:00 +7°C° 0 mm 2 mps 743 mmHg 66%
    10:00 +8°C° 0 mm 2 mps 743 mmHg 60%
    11:00 +9°C° 0 mm 2 mps 743 mmHg 54%
    12:00 +10°C° 0 mm 2 mps 743 mmHg 53%
    13:00 +10°C° 0 mm 2 mps 743 mmHg 51%
    14:00 +10°C° 0 mm 2 mps 743 mmHg 49%
    15:00 +10°C° 0 mm 2 mps 743 mmHg 51%
    16:00 +9°C° 0 mm 2 mps 743 mmHg 54%
    17:00 +9°C° 0 mm 2 mps 743 mmHg 57%
    18:00 +9°C° 0 mm 2 mps 743 mmHg 59%
    19:00 +8°C° 0 mm 2 mps 743 mmHg 61%
    20:00 +8°C° 0 mm 2 mps 744 mmHg 63%
    21:00 +9°C° 0 mm 1 mps 744 mmHg 65%
    22:00 +8°C° 0 mm 1 mps 744 mmHg 66%
    23:00 +8°C° 0 mm 1 mps 744 mmHg 68%

    13 December, Thursday

    Time Temperature Precipitation Wind Pressure Humidity
    00:00 +8°C° 0 mm 1 mps 744 mmHg 68%
    01:00 +8°C° 0 mm 1 mps 744 mmHg 69%
    02:00 +8°C° 0 mm 1 mps 744 mmHg 70%
    03:00 +8°C° 0 mm 1 mps 744 mmHg 70%
    04:00 +8°C° 0 mm 1 mps 744 mmHg 71%
    05:00 +8°C° 0 mm 1 mps 744 mmHg 71%
    06:00 +8°C° 0 mm 1 mps 744 mmHg 72%
    07:00 +8°C° 0 mm 2 mps 744 mmHg 72%
    08:00 +8°C° 0 mm 2 mps 744 mmHg 73%
    09:00 +9°C° 0.2 mm 2 mps 744 mmHg 73%
    10:00 +9°C° 0.2 mm 3 mps 744 mmHg 73%
    11:00 +10°C° 0.2 mm 3 mps 744 mmHg 73%
    12:00 +10°C° 1.2 mm 3 mps 743 mmHg 77%
    13:00 +10°C° 1.2 mm 3 mps 743 mmHg 80%
    14:00 +10°C° 1.2 mm 3 mps 742 mmHg 84%
    15:00 +10°C° 0.5 mm 2 mps 742 mmHg 84%
    16:00 +10°C° 0.5 mm 2 mps 742 mmHg 85%
    17:00 +9°C° 0.5 mm 2 mps 741 mmHg 86%
    18:00 +9°C° 0 mm 2 mps 742 mmHg 86%
    19:00 +9°C° 0 mm 2 mps 742 mmHg 86%
    20:00 +9°C° 0 mm 2 mps 742 mmHg 86%
    21:00 +9°C° 0 mm 2 mps 742 mmHg 85%
    22:00 +9°C° 0 mm 2 mps 742 mmHg 84%
    23:00 +9°C° 0 mm 2 mps 742 mmHg 84%

    14 December, Friday

    Time Temperature Precipitation Wind Pressure Humidity
    00:00 +10°C° 0 mm 1 mps 742 mmHg 84%
    01:00 +10°C° 0 mm 1 mps 742 mmHg 84%
    02:00 +9°C° 0 mm 1 mps 741 mmHg 84%
    03:00 +9°C° 0 mm 1 mps 741 mmHg 85%
    04:00 +9°C° 0 mm 1 mps 741 mmHg 85%
    05:00 +9°C° 0 mm 1 mps 741 mmHg 85%
    06:00 +9°C° 0 mm 1 mps 741 mmHg 86%
    07:00 +9°C° 0 mm 1 mps 741 mmHg 86%
    08:00 +10°C° 0 mm 1 mps 741 mmHg 86%
    09:00 +10°C° 0 mm 2 mps 741 mmHg 82%
    10:00 +13°C° 0 mm 2 mps 741 mmHg 78%
    11:00 +14°C° 0 mm 3 mps 741 mmHg 74%
    12:00 +14°C° 0 mm 3 mps 741 mmHg 72%
    13:00 +16°C° 0 mm 3 mps 740 mmHg 69%
    14:00 +17°C° 0 mm 4 mps 740 mmHg 67%
    15:00 +15°C° 0 mm 4 mps 740 mmHg 69%
    16:00 +15°C° 0 mm 5 mps 739 mmHg 72%
    17:00 +14°C° 0 mm 5 mps 739 mmHg 74%
    18:00 +14°C° 0 mm 6 mps 739 mmHg 74%
    19:00 +14°C° 0 mm 6 mps 739 mmHg 74%
    20:00 +14°C° 0 mm 7 mps 738 mmHg 75%
    21:00 +14°C° 0 mm 7 mps 738 mmHg 75%
    22:00 +13°C° 0 mm 8 mps 738 mmHg 75%
    23:00 +13°C° 0 mm 8 mps 737 mmHg 75%

    15 December, Saturday

    Time Temperature Precipitation Wind Pressure Humidity
    00:00 +13°C° 0 mm 9 mps 737 mmHg 74%
    01:00 +13°C° 0 mm 9 mps 736 mmHg 73%
    02:00 +13°C° 0 mm 10 mps 735 mmHg 73%
    03:00 +13°C° 0.4 mm 10 mps 735 mmHg 74%
    04:00 +13°C° 0.4 mm 9 mps 735 mmHg 76%
    05:00 +12°C° 0.4 mm 9 mps 734 mmHg 77%
    06:00 +12°C° 0.6 mm 8 mps 734 mmHg 78%
    07:00 +12°C° 0.6 mm 7 mps 734 mmHg 79%
    08:00 +11°C° 0.6 mm 6 mps 735 mmHg 80%
    09:00 +13°C° 0.2 mm 6 mps 735 mmHg 73%
    10:00 +14°C° 0.2 mm 6 mps 735 mmHg 66%
    11:00 +15°C° 0.2 mm 5 mps 735 mmHg 59%
    12:00 +15°C° 0.1 mm 5 mps 735 mmHg 58%
    13:00 +15°C° 0.1 mm 5 mps 734 mmHg 57%
    14:00 +15°C° 0.1 mm 6 mps 734 mmHg 56%
    15:00 +14°C° 0 mm 5 mps 734 mmHg 60%
    16:00 +14°C° 0 mm 5 mps 734 mmHg 64%
    17:00 +13°C° 0 mm 5 mps 734 mmHg 68%
    18:00 +13°C° 0.2 mm 5 mps 734 mmHg 71%
    19:00 +13°C° 0.2 mm 4 mps 734 mmHg 74%
    20:00 +12°C° 0.2 mm 4 mps 734 mmHg 78%
    21:00 +12°C° 1 mm 3 mps 734 mmHg 79%
    22:00 +12°C° 1 mm 3 mps 735 mmHg 81%
    23:00 +12°C° 1 mm 3 mps 735 mmHg 82%
    Show more